FW5814 Weather Reports


time (UTC)temp
F
wind
direction
speed
knots
gust
knots
rain 1hr
in
rain 24hr
in
rain mn
in
humidity
%
barometer
mb
20260509135006 75 140 0.9 3.5 0.00 0.00 0.00 81 1008.9
20260509134509 75 135 0.9 3.5 0.00 0.00 0.00 82 1008.8
20260509134005 74 360 0.9 3.5 0.00 0.00 0.00 84 1008.7
20260509133501 74 360 0.0 2.6 0.00 0.00 0.00 86 1008.7
20260509133101 74 131 0.0 3.5 0.00 0.00 0.00 86 1008.6
20260509132600 73 123 1.7 3.5 0.00 0.00 0.00 87 1008.6
20260509132058 73 113 0.9 3.5 0.00 0.00 0.00 88 1008.6
20260509131556 72 115 1.7 3.5 0.00 0.00 0.00 88 1008.7
20260509131055 72 105 1.7 3.5 0.00 0.00 0.00 89 1008.5
20260509130554 72 94 0.9 2.6 0.00 0.00 0.00 90 1008.5
20260509130050 71 71 0.9 2.6 0.00 0.00 0.00 89 1008.5
20260509125552 71 86 0.9 2.6 0.00 0.00 0.00 90 1008.4
20260509125047 71 355 0.0 3.5 0.00 0.00 0.00 90 1008.4
20260509124546 71 355 1.7 3.5 0.00 0.00 0.00 90 1008.3
20260509124046 71 311 0.9 2.6 0.00 0.00 0.00 90 1008.3
20260509123546 71 313 0.9 2.6 0.00 0.00 0.00 90 1008.3
20260509123043 70 313 0.0 1.7 0.00 0.00 0.00 90 1008.4
20260509122543 70 312 0.0 1.7 0.00 0.00 0.00 90 1008.5
20260509122043 70 314 0.0 1.7 0.00 0.00 0.00 90 1008.7
20260509121548 70 310 0.0 1.7 0.00 0.00 0.00 90 1008.4
20260509121048 70 310 0.0 1.7 0.00 0.00 0.00 90 1008.6
20260509120543 70 313 0.0 2.6 0.00 0.00 0.00 90 1009.0
20260509120012 70 313 0.0 3.5 0.00 0.00 0.00 90 1008.7
20260509115511 70 302 0.0 4.3 0.00 0.00 0.00 90 1009.0
20260509115012 70 309 0.9 4.3 0.00 0.00 0.00 90 1008.9
20260509114522 70 294 0.9 8.7 0.00 0.00 0.00 90 1009.1
20260509114012 70 360 2.6 8.7 0.00 0.00 0.00 90 1009.3
20260509113512 70 15 2.6 7.8 0.00 0.00 0.00 90 1009.1
20260509113009 70 302 0.9 10.4 0.00 0.00 0.00 91 1008.8
20260509112509 70 355 5.2 10.4 0.00 0.00 0.00 90 1008.7
20260509112011 70 325 1.7 10.4 0.00 0.00 0.00 91 1008.5
20260509111508 70 234 6.1 10.4 0.00 0.00 0.00 91 1007.6
20260509111009 70 227 5.2 9.6 0.00 0.00 0.00 91 1007.4
20260509110509 70 207 6.1 9.6 0.00 0.00 0.00 91 1007.1
20260509110008 70 200 5.2 9.6 0.00 0.00 0.00 90 1006.7
20260509105511 70 198 7.0 12.2 0.00 0.00 0.00 90 1006.8
20260509105007 70 192 7.0 13.0 0.00 0.00 0.00 91 1006.8
20260509104507 70 207 7.8 13.9 0.00 0.00 0.00 91 1006.8
20260509104007 70 207 7.0 11.3 0.00 0.00 0.00 91 1006.9
20260509103508 70 205 7.0 11.3 0.00 0.00 0.00 91 1006.6
20260509103106 70 205 6.1 11.3 0.00 0.00 0.00 91 1006.4
20260509102536 70 202 7.0 12.2 0.00 0.00 0.00 91 1006.3
20260509102036 69 200 7.0 13.0 0.00 0.00 0.00 91 1006.1
20260509101547 69 196 7.8 13.9 0.00 0.00 0.00 91 1006.1
20260509101035 69 217 8.7 14.8 0.00 0.00 0.00 90 1006.0
20260509100535 69 175 7.0 13.0 0.00 0.00 0.00 90 1006.0
20260509100034 69 194 7.8 11.3 0.00 0.00 0.00 90 1006.2
20260509095531 69 191 7.0 10.4 0.00 0.00 0.00 90 1006.6
20260509095031 69 186 5.2 7.8 0.00 0.00 0.00 90 1006.6
20260509094533 69 182 5.2 8.7 0.00 0.00 0.00 90 1006.6
20260509094029 69 202 6.1 8.7 0.00 0.00 0.00 90 1006.7
20260509093529 69 194 5.2 8.7 0.00 0.00 0.00 90 1006.8
20260509093028 69 179 5.2 10.4 0.00 0.00 0.00 90 1006.9
20260509092529 69 210 5.2 10.4 0.00 0.00 0.00 90 1007.2
20260509092028 69 172 4.3 7.8 0.00 0.00 0.00 90 1007.3
20260509091527 68 196 4.3 7.8 0.00 0.00 0.00 90 1007.5
20260509091027 68 175 4.3 7.8 0.00 0.00 0.00 90 1007.4
20260509090528 68 180 3.5 7.0 0.00 0.00 0.00 90 1007.8
20260509090027 68 198 4.3 7.0 0.00 0.00 0.00 90 1008.2
20260509085555 68 186 3.5 7.0 0.00 0.00 0.00 89 1008.3
20260509085055 68 177 3.5 7.0 0.00 0.00 0.00 90 1008.5
20260509084556 68 171 4.3 6.1 0.00 0.00 0.00 89 1008.5
20260509084058 69 221 2.6 4.3 0.00 0.00 0.00 90 1008.8
20260509083555 69 234 1.7 2.6 0.00 0.00 0.00 89 1009.0
20260509083055 69 234 0.0 2.6 0.00 0.00 0.00 89 1009.1
20260509082554 69 234 0.9 2.6 0.00 0.00 0.00 90 1008.9
20260509082054 69 263 0.0 0.0 0.00 0.00 0.00 90 1009.0
20260509081553 69 263 0.0 0.0 0.00 0.00 0.00 90 1009.4
20260509081052 69 263 0.0 2.6 0.00 0.00 0.00 90 1009.4
20260509080552 69 262 0.0 2.6 0.00 0.00 0.00 90 1009.5
20260509080052 69 243 0.0 1.7 0.00 0.00 0.00 90 1009.8
20260509075551 69 243 0.0 1.7 0.00 0.00 0.00 89 1010.1
20260509075052 69 242 0.0 1.7 0.00 0.00 0.00 89 1010.2
20260509074602 69 242 0.0 2.6 0.00 0.00 0.00 89 1010.3
20260509074051 69 242 0.0 2.6 0.00 0.00 0.00 90 1010.4
20260509073551 69 242 1.7 3.5 0.00 0.00 0.00 89 1010.1
20260509073053 68 257 1.7 3.5 0.00 0.00 0.00 89 1010.1
20260509072551 68 288 0.9 2.6 0.00 0.00 0.00 89 1010.1
20260509072048 68 288 0.0 2.6 0.00 0.00 0.00 89 1010.1
20260509071557 68 288 0.0 2.6 0.00 0.00 0.00 89 1009.9
20260509071048 68 287 0.9 2.6 0.00 0.00 0.00 89 1010.0
20260509070548 68 159 0.0 0.0 0.00 0.00 0.00 89 1010.0
20260509070049 68 161 0.0 0.0 0.00 0.00 0.00 88 1009.6
20260509065550 68 160 0.0 0.0 0.00 0.00 0.00 88 1009.7
20260509065048 68 157 0.0 0.0 0.00 0.00 0.00 88 1009.6
20260509064558 68 159 0.0 0.0 0.00 0.00 0.00 88 1009.4
20260509064046 68 160 0.0 0.0 0.00 0.00 0.00 88 1009.4
20260509063547 68 159 0.0 0.0 0.00 0.00 0.00 88 1009.3
20260509063048 68 159 0.0 0.0 0.00 0.00 0.00 88 1009.0
20260509062544 69 159 0.0 0.0 0.00 0.00 0.00 88 1008.9
20260509062045 69 160 0.0 0.0 0.00 0.00 0.00 88 1009.0
20260509061545 69 160 0.0 0.0 0.00 0.00 0.00 88 1008.9
20260509061043 69 159 0.0 0.0 0.00 0.00 0.00 88 1008.9
20260509060544 69 159 0.0 0.0 0.00 0.00 0.00 88 1009.0
20260509060044 69 159 0.0 0.0 0.00 0.00 0.00 88 1009.1
20260509055544 69 159 0.0 0.0 0.00 0.00 0.00 87 1008.9
20260509055044 69 159 0.0 0.0 0.00 0.00 0.00 87 1008.8
20260509054543 70 155 0.0 0.0 0.00 0.00 0.00 87 1008.8
20260509054042 70 155 0.0 4.3 0.00 0.00 0.00 87 1009.1
20260509053542 70 156 1.7 4.3 0.00 0.00 0.00 87 1009.1
20260509053042 70 360 0.0 1.7 0.00 0.00 0.00 87 1009.2
20260509052543 70 161 0.0 0.0 0.00 0.00 0.00 87 1009.4
20260509052011 70 161 0.0 0.0 0.00 0.00 0.00 87 1009.4
20260509051515 70 162 0.0 0.9 0.00 0.00 0.00 87 1009.5
20260509051012 70 163 0.0 0.9 0.00 0.00 0.00 87 1009.6
20260509050515 71 162 0.0 1.7 0.00 0.00 0.00 87 1009.6
20260509050012 70 162 0.0 1.7 0.00 0.00 0.00 87 1009.4
20260509045510 70 162 0.0 0.0 0.00 0.00 0.00 87 1009.5
20260509045006 70 161 0.0 0.0 0.00 0.00 0.00 87 1009.5
20260509044506 70 161 0.0 0.0 0.00 0.00 0.00 87 1009.4
20260509044006 70 162 0.0 0.0 0.00 0.00 0.00 86 1009.4
20260509043508 70 161 0.0 0.0 0.00 0.00 0.00 86 1009.3
20260509043009 70 163 0.0 0.0 0.00 0.00 0.00 86 1009.4
20260509042506 70 162 0.0 0.0 0.00 0.00 0.00 86 1009.2
20260509042005 70 162 0.0 0.0 0.00 0.00 0.00 86 1009.2
20260509041505 71 175 0.0 0.0 0.00 0.00 0.00 85 1009.0
20260509041005 71 165 0.0 0.0 0.00 0.00 0.00 85 1009.0
20260509040505 71 164 0.0 0.9 0.00 0.00 0.00 85 1009.0
20260509040004 71 169 0.0 0.9 0.00 0.00 0.00 85 1009.0
20260509035508 71 157 0.0 1.7 0.00 0.00 0.00 85 1008.8
20260509035034 71 155 0.0 1.7 0.00 0.00 0.00 84 1008.6
20260509034546 72 154 0.0 0.0 0.00 0.00 0.00 84 1008.7
20260509034033 72 153 0.0 0.9 0.00 0.00 0.00 84 1008.7
20260509033533 72 153 0.0 0.9 0.00 0.00 0.00 84 1008.8
20260509033034 72 153 0.0 0.0 0.00 0.00 0.00 84 1008.8
20260509032534 72 153 0.0 0.0 0.00 0.00 0.00 84 1008.9
20260509032027 72 153 0.0 0.0 0.00 0.00 0.00 84 1008.8
20260509031529 72 153 0.0 0.0 0.00 0.00 0.00 83 1008.7
20260509031027 72 153 0.0 0.9 0.00 0.00 0.00 83 1008.7
20260509030527 72 153 0.0 0.9 0.00 0.00 0.00 83 1008.6
20260509030027 73 153 0.0 0.0 0.00 0.00 0.00 83 1008.6
20260509025527 73 153 0.0 0.0 0.00 0.00 0.00 83 1008.4
20260509025014 73 153 0.0 0.9 0.00 0.00 0.00 83 1008.3
20260509024514 73 153 0.0 0.9 0.00 0.00 0.00 83 1008.4
20260509024015 73 153 0.0 0.0 0.00 0.00 0.00 83 1008.2
20260509023513 73 154 0.0 0.0 0.00 0.00 0.00 82 1008.1
20260509023014 73 154 0.0 0.0 0.00 0.00 0.00 82 1008.1
20260509022514 73 154 0.0 0.0 0.00 0.00 0.00 82 1008.1
20260509022012 73 154 0.0 0.0 0.00 0.00 0.00 82 1008.3
20260509021512 73 154 0.0 0.9 0.00 0.00 0.00 82 1008.1
20260509021013 73 154 0.0 0.9 0.00 0.00 0.00 82 1008.0
20260509020514 73 154 0.0 0.9 0.00 0.00 0.00 82 1008.0
20260509020011 73 154 0.0 0.9 0.00 0.00 0.00 82 1008.0
20260509015511 73 154 0.0 0.9 0.00 0.00 0.00 81 1007.8
20260509015010 73 154 0.0 2.6 0.00 0.00 0.00 81 1007.8
20260509014509 73 154 0.0 3.5 0.00 0.00 0.00 81 1007.8
20260509014010 74 157 0.0 3.5 0.00 0.00 0.00 81 1007.7
20260509013512 74 139 0.9 3.5 0.00 0.00 0.00 81 1007.7
20260509013010 74 179 0.9 4.3 0.00 0.00 0.00 81 1007.7
20260509012509 74 162 2.6 4.3 0.00 0.00 0.00 80 1007.6
20260509012009 74 191 0.9 4.3 0.00 0.00 0.00 80 1007.6
20260509011506 74 182 1.7 4.3 0.00 0.00 0.00 80 1007.5
20260509011008 74 192 0.9 5.2 0.00 0.00 0.00 80 1007.1
20260509010506 74 186 2.6 5.2 0.00 0.00 0.00 80 1007.0
20260509010006 74 184 1.7 4.3 0.00 0.00 0.00 79 1007.0
20260509005506 74 142 0.0 2.6 0.00 0.00 0.00 79 1007.1
20260509005007 74 134 0.0 0.9 0.00 0.00 0.00 79 1007.1
20260509004505 75 135 0.0 3.5 0.00 0.00 0.00 78 1007.1
20260509004008 74 153 0.0 2.6 0.00 0.00 0.00 78 1007.1
20260509003505 75 175 0.0 2.6 0.00 0.00 0.00 78 1007.0
20260509003005 75 175 0.0 3.5 0.00 0.00 0.00 78 1007.1
20260509002503 75 177 0.0 4.3 0.00 0.00 0.00 78 1007.0
20260509002002 75 173 0.9 4.3 0.00 0.00 0.00 77 1007.1
20260509001535 75 159 0.9 4.3 0.00 0.00 0.00 77 1007.3
20260509001031 75 147 0.0 6.1 0.00 0.00 0.00 77 1007.3
20260509000529 75 180 0.0 6.1 0.00 0.00 0.00 76 1007.3
20260509000027 75 160 0.9 4.3 0.00 0.00 0.00 76 1007.1
20260508235528 75 159 1.7 7.0 0.00 0.00 0.00 76 1007.1
20260508235025 75 180 3.5 7.0 0.00 0.00 0.00 76 1007.1
20260508234552 75 171 4.3 7.8 0.00 0.00 0.00 75 1006.9
20260508234056 75 190 3.5 7.0 0.00 0.00 0.00 75 1006.9
20260508233552 75 175 2.6 7.0 0.00 0.00 0.00 75 1006.9
20260508233048 75 176 2.6 8.7 0.00 0.00 0.00 75 1007.0
20260508232546 75 197 3.5 9.6 0.00 0.00 0.00 75 1007.0
20260508232048 75 200 4.3 8.7 0.00 0.00 0.00 75 1007.1
20260508231541 75 149 3.5 9.6 0.00 0.00 0.00 75 1007.0
20260508231040 75 186 4.3 9.6 0.00 0.00 0.00 75 1007.1
20260508230541 75 193 6.1 10.4 0.00 0.00 0.00 75 1007.1
20260508230039 75 171 5.2 10.4 0.00 0.00 0.00 74 1007.3
20260508225637 75 184 6.1 10.4 0.00 0.00 0.00 74 1007.3
20260508225034 76 190 4.3 8.7 0.00 0.00 0.00 74 1007.4
20260508224545 75 169 4.3 9.6 0.00 0.00 0.00 74 1007.5
20260508224034 75 190 4.3 8.7 0.00 0.00 0.00 75 1007.4
20260508223534 75 186 5.2 10.4 0.00 0.00 0.00 75 1007.4
20260508223042 75 205 4.3 13.0 0.00 0.00 0.00 75 1007.4
20260508222529 75 197 4.3 13.0 0.00 0.00 0.00 75 1007.4
20260508222027 74 219 4.3 10.4 0.00 0.00 0.00 76 1007.3
20260508221523 74 193 5.2 9.6 0.00 0.00 0.00 75 1007.3
20260508221022 74 213 5.2 9.6 0.00 0.00 0.00 76 1007.4
20260508220520 73 197 3.5 9.6 0.00 0.00 0.00 77 1007.5
20260508220024 73 185 2.6 8.7 0.00 0.00 0.00 78 1007.6
20260508215518 72 172 5.2 8.7 0.00 0.00 0.00 78 1007.7
20260508215017 72 204 5.2 8.7 0.00 0.00 0.00 78 1007.9
20260508214523 72 192 4.3 8.7 0.00 0.00 0.00 78 1007.9
20260508214018 72 202 4.3 7.8 0.00 0.00 0.00 78 1008.0
20260508213514 71 169 5.2 7.8 0.00 0.00 0.00 78 1008.0
20260508213017 71 174 1.7 6.1 0.00 0.00 0.00 79 1008.2
20260508212513 71 131 2.6 6.1 0.00 0.00 0.00 79 1008.2
20260508212014 70 184 1.7 6.1 0.00 0.00 0.00 79 1008.2
20260508211508 70 148 1.7 3.5 0.00 0.00 0.00 80 1008.6
20260508211001 70 103 0.0 2.6 0.00 0.00 0.00 79 1009.0
20260508210602 70 47 0.0 2.6 0.00 0.00 0.00 79 1009.0
20260508210100 70 38 0.0 1.7 0.00 0.00 0.00 79 1009.2
20260508205559 70 317 0.0 2.6 0.00 0.00 0.00 79 1009.6
20260508205059 70 317 0.0 2.6 0.00 0.00 0.00 79 1009.7
20260508204559 70 231 0.0 1.7 0.00 0.00 0.00 78 1009.8
20260508204057 70 230 0.0 0.9 0.00 0.00 0.00 78 1009.7
20260508203559 70 230 0.0 0.9 0.00 0.00 0.00 78 1009.7
20260508202618 70 230 0.0 0.9 0.00 0.00 0.00 78 1009.8
20260508201552 70 232 0.0 4.3 0.00 0.00 0.00 77 1010.1
20260508201049 70 181 0.9 6.1 0.00 0.00 0.00 77 1010.0
20260508200549 70 214 2.6 6.1 0.00 0.00 0.00 77 1009.9
20260508200050 69 131 1.7 6.1 0.00 0.00 0.00 79 1009.9
20260508195549 69 169 0.0 4.3 0.00 0.00 0.00 79 1009.6
20260508195518 69 167 0.0 4.3 0.00 0.00 0.00 79 1009.6
20260508195047 69 190 1.7 5.2 0.00 0.00 0.00 79 1009.8
20260508194656 68 140 0.9 3.5 0.00 0.00 0.00 79 1009.8
20260508194030 68 221 1.7 4.3 0.00 0.00 0.00 79 1010.2
20260508193544 68 142 0.9 4.3 0.00 0.00 0.00 78 1010.0
20260508193018 68 209 1.7 6.1 0.00 0.00 0.00 77 1010.3
20260508192630 68 211 2.6 4.3 0.00 0.00 0.00 76 1010.3
20260508192018 69 187 0.9 4.3 0.00 0.00 0.00 77 1010.4
20260508191518 69 181 1.7 4.3 0.00 0.00 0.00 76 1010.4
20260508191509 69 204 2.6 4.3 0.00 0.00 0.00 76 1010.4
20260508190046 69 185 3.5 6.1 0.00 0.00 0.00 75 1010.7
20260508185511 69 154 1.7 5.2 0.00 0.00 0.00 76 1010.5
20260508185015 68 168 1.7 6.1 0.00 0.00 0.00 75 1010.5
20260508184518 69 213 3.5 6.1 0.00 0.00 0.00 75 1010.7
20260508184005 69 209 4.3 6.1 0.00 0.00 0.00 76 1010.8
20260508183502 69 188 3.5 8.7 0.00 0.00 0.00 75 1010.9
20260508183002 69 190 3.5 8.7 0.00 0.00 0.00 75 1011.0
20260508182501 69 207 4.3 7.8 0.00 0.00 0.00 74 1011.3
20260508182100 69 140 2.6 7.0 0.00 0.00 0.00 74 1011.3
20260508182000 69 169 2.6 7.0 0.00 0.00 0.00 74 1011.3
20260508181600 69 201 2.6 6.1 0.00 0.00 0.00 74 1011.3
20260508181104 69 182 2.6 7.8 0.00 0.00 0.00 73 1011.4
20260508180601 69 180 2.6 7.8 0.00 0.00 0.00 73 1011.3
20260508180114 69 132 2.6 4.3 0.00 0.00 0.00 73 1011.5
20260508180002 69 195 1.7 4.3 0.00 0.00 0.00 73 1011.5
20260508175501 69 130 1.7 5.2 0.00 0.00 0.00 73 1011.5
20260508175100 69 176 0.9 6.1 0.00 0.00 0.00 73 1011.5
20260508174614 69 154 0.9 7.8 0.00 0.00 0.00 72 1011.6
20260508173509 69 182 2.6 7.8 0.00 0.00 0.00 73 1011.3
20260508173013 68 87 3.5 7.8 0.00 0.00 0.00 75 1011.2
20260508172505 68 138 4.3 7.8 0.00 0.00 0.00 74 1011.5
20260508172008 68 111 1.7 6.1 0.00 0.00 0.00 75 1011.8
20260508171504 68 130 2.6 6.1 0.00 0.00 0.00 75 1011.9
20260508171003 67 126 1.7 7.0 0.00 0.00 0.00 75 1012.0
20260508170518 67 105 3.5 7.0 0.00 0.00 0.00 74 1012.0
20260508165556 67 96 4.3 7.8 0.00 0.00 0.00 75 1012.2
20260508165056 67 83 1.7 5.2 0.00 0.00 0.00 75 1012.3
20260508164559 67 109 0.9 6.1 0.00 0.00 0.00 76 1012.4
20260508163525 67 94 4.3 7.8 0.00 0.00 0.00 75 1012.5
20260508163030 67 111 5.2 7.8 0.00 0.00 0.00 75 1012.6
20260508162524 67 109 4.3 7.0 0.00 0.00 0.00 75 1012.6
20260508162045 66 53 1.7 7.0 0.00 0.00 0.00 76 1012.7
20260508161523 66 87 3.5 7.0 0.00 0.00 0.00 76 1012.7
20260508161020 66 92 1.7 7.0 0.00 0.00 0.00 77 1012.8
20260508160520 66 114 2.6 6.1 0.00 0.00 0.00 76 1012.9
20260508160019 66 101 2.6 7.0 0.00 0.00 0.00 78 1013.0
20260508155516 65 69 1.7 7.0 0.00 0.00 0.00 78 1012.9
20260508155016 65 89 2.6 7.0 0.00 0.00 0.00 77 1013.1
20260508154515 65 96 4.3 7.0 0.00 0.00 0.00 78 1013.1
20260508154014 65 92 2.6 6.1 0.00 0.00 0.00 79 1013.1
20260508153513 64 86 1.7 5.2 0.00 0.00 0.00 79 1013.1
20260508153026 64 83 0.9 3.5 0.00 0.00 0.00 79 1013.1
20260508152516 64 90 0.9 5.2 0.00 0.00 0.00 79 1013.2
20260508152013 64 91 1.7 5.2 0.00 0.00 0.00 79 1013.2
20260508151511 64 99 0.0 3.5 0.00 0.00 0.00 80 1013.2
20260508150538 63 100 1.7 5.2 0.00 0.00 0.00 80 1013.3
20260508150038 63 103 0.9 6.1 0.00 0.00 0.00 80 1013.2
20260508145537 63 92 1.7 5.2 0.00 0.00 0.00 80 1013.2
20260508145036 63 98 1.7 5.2 0.00 0.00 0.00 81 1013.2
20260508144538 63 117 0.9 5.2 0.00 0.00 0.00 81 1013.2
20260508144034 63 58 0.0 3.5 0.00 0.00 0.00 82 1013.2
20260508143531 62 57 0.9 2.6 0.00 0.00 0.00 83 1013.2
20260508143029 62 41 0.9 3.5 0.00 0.00 0.00 83 1013.3
20260508142529 62 43 1.7 3.5 0.00 0.00 0.00 84 1013.2
20260508142029 62 87 1.7 3.5 0.00 0.00 0.00 84 1013.2
20260508141527 61 87 0.9 3.5 0.00 0.00 0.00 84 1013.3
20260508141026 61 74 0.9 2.6 0.00 0.00 0.00 85 1013.3
20260508140524 61 75 0.0 4.3 0.00 0.00 0.00 85 1013.4
20260508140026 61 72 0.9 4.3 0.00 0.00 0.00 85 1013.4
20260508135527 61 62 1.7 4.3 0.00 0.00 0.00 85 1013.3